Location: Waco, TX
(31.5480°N, 97.1670°W)
Time: 16:58:53
(UTC-06:00)

ISS - Pass Details

Date: 14 November 2018
Orbit: 402 x 409 km, 51.6° (Epoch: 14 November)

Event Time Altitude Azimuth Distance (km) Brightness Sun altitude
Rises 04:51:05 0° 334° (NNW) 2,318 - -26.6°
Reaches altitude 10° 04:54:05 10° 4° (N) 1,458 - -25.9°
Maximum altitude 04:55:39 13° 33° (NNE) 1,298 - -25.6°
Exits shadow 04:55:52 13° 37° (NE) 1,301 -0.9 -25.6°
Drops below altitude 10° 04:57:14 10° 62° (ENE) 1,457 -0.3 -25.3°
Sets 05:00:14 0° 92° (E) 2,315 1.4 -24.6°
